SWA1703 KELP-KAUS

Flight info

Callsign SWA1703
Flight time 1h 7m
Altitude 33000
Route NEVUE3 FST DILLO LAIKS4
Aircraft B737/M-VGDW/C

Departure

Time 2026-04-21 00:34
Airport El Paso International Airport (KELP)

Arrival

Time 2026-04-21 01:42
Airport Austin Bergstrom International Airport (KAUS)
Time Latitude Longitude Altitude Speed Heading
2026-04-21 00:30 31.80059 -106.39421 3946 ft 0 kts 170°
2026-04-21 00:31 31.80073 -106.39424 3946 ft 2 kts 170°
2026-04-21 00:32 31.80089 -106.39427 3946 ft 2 kts 169°
2026-04-21 00:32 31.80105 -106.39431 3946 ft 2 kts 169°
2026-04-21 00:32 31.80121 -106.39434 3946 ft 2 kts 166°
2026-04-21 00:32 31.80137 -106.39440 3946 ft 2 kts 146°
2026-04-21 00:33 31.80143 -106.39448 3946 ft 0 kts 101°
2026-04-21 00:33 31.80177 -106.39387 3946 ft 24 kts 45°
2026-04-21 00:33 31.80216 -106.39118 3946 ft 68 kts 93°
2026-04-21 00:33 31.80172 -106.38217 3946 ft 149 kts 94°
2026-04-21 00:34 31.80134 -106.36792 4380 ft 186 kts 91°
2026-04-21 00:34 31.80066 -106.35256 5296 ft 200 kts 97°
2026-04-21 00:34 31.79844 -106.33514 5599 ft 232 kts 99°
2026-04-21 00:34 31.79568 -106.31517 5846 ft 264 kts 99°
2026-04-21 00:35 31.79079 -106.29404 6512 ft 278 kts 121°
2026-04-21 00:35 31.77942 -106.27577 7558 ft 280 kts 129°
2026-04-21 00:35 31.76702 -106.25781 8468 ft 286 kts 130°
2026-04-21 00:35 31.75436 -106.23959 9439 ft 290 kts 130°
2026-04-21 00:36 31.74132 -106.22072 10049 ft 309 kts 130°
2026-04-21 00:36 31.72715 -106.20006 10256 ft 339 kts 130°
2026-04-21 00:36 31.71184 -106.17753 10425 ft 366 kts 130°
2026-04-21 00:36 31.69548 -106.15332 10591 ft 390 kts 130°
2026-04-21 00:37 31.67857 -106.12817 10979 ft 403 kts 130°
2026-04-21 00:37 31.66114 -106.10218 11589 ft 408 kts 130°
2026-04-21 00:37 31.64352 -106.07590 12262 ft 411 kts 130°
2026-04-21 00:37 31.62575 -106.04942 12894 ft 416 kts 130°
2026-04-21 00:38 31.60776 -106.02263 13492 ft 420 kts 130°
2026-04-21 00:38 31.58960 -105.99561 14052 ft 424 kts 130°
2026-04-21 00:38 31.57125 -105.96832 14558 ft 429 kts 130°
2026-04-21 00:38 31.55267 -105.94073 15061 ft 433 kts 130°
2026-04-21 00:39 31.53387 -105.91283 15559 ft 438 kts 130°
2026-04-21 00:39 31.51492 -105.88473 16047 ft 442 kts 130°
2026-04-21 00:39 31.49614 -105.85657 16526 ft 447 kts 128°
2026-04-21 00:39 31.48002 -105.82514 16989 ft 454 kts 117°
2026-04-21 00:40 31.46814 -105.79075 17472 ft 459 kts 108°
2026-04-21 00:40 31.46074 -105.75425 17955 ft 463 kts 102°
2026-04-21 00:40 31.45452 -105.71712 18389 ft 466 kts 101°
2026-04-21 00:40 31.44848 -105.67967 18771 ft 470 kts 101°
2026-04-21 00:41 31.44240 -105.64200 19201 ft 472 kts 101°
2026-04-21 00:41 31.43623 -105.60421 19623 ft 474 kts 102°
2026-04-21 00:41 31.42986 -105.56627 19992 ft 477 kts 102°
2026-04-21 00:41 31.42338 -105.52858 20354 ft 480 kts 102°
2026-04-21 00:42 31.41671 -105.49025 20744 ft 482 kts 102°
2026-04-21 00:42 31.41001 -105.45179 21113 ft 484 kts 102°
2026-04-21 00:42 31.40325 -105.41308 21458 ft 486 kts 102°
2026-04-21 00:42 31.39641 -105.37423 21801 ft 489 kts 102°
2026-04-21 00:43 31.38952 -105.33513 22137 ft 491 kts 102°
2026-04-21 00:43 31.38261 -105.29590 22459 ft 494 kts 102°
2026-04-21 00:43 31.37566 -105.25648 22772 ft 496 kts 102°
2026-04-21 00:43 31.36958 -105.22209 23028 ft 498 kts 102°
2026-04-21 00:44 31.36264 -105.18284 23331 ft 500 kts 102°
2026-04-21 00:44 31.35556 -105.14286 23599 ft 503 kts 102°
2026-04-21 00:44 31.34846 -105.10276 23826 ft 505 kts 102°
2026-04-21 00:45 31.33410 -105.02199 24273 ft 509 kts 103°
2026-04-21 00:45 31.32685 -104.98135 24496 ft 511 kts 103°
2026-04-21 00:45 31.31957 -104.94060 24717 ft 513 kts 103°
2026-04-21 00:45 31.31225 -104.89967 25000 ft 514 kts 103°
2026-04-21 00:46 31.30496 -104.85901 25524 ft 509 kts 103°
2026-04-21 00:46 31.29782 -104.81924 26085 ft 504 kts 103°
2026-04-21 00:46 31.29064 -104.77927 26611 ft 501 kts 103°
2026-04-21 00:46 31.28346 -104.73947 27096 ft 500 kts 103°
2026-04-21 00:47 31.27627 -104.69969 27505 ft 501 kts 103°
2026-04-21 00:47 31.26906 -104.65989 27916 ft 501 kts 104°
2026-04-21 00:47 31.26183 -104.62005 28366 ft 501 kts 104°
2026-04-21 00:47 31.25459 -104.58025 28859 ft 500 kts 104°
2026-04-21 00:48 31.24736 -104.54051 29338 ft 500 kts 104°
2026-04-21 00:48 31.24011 -104.50076 29800 ft 501 kts 104°
2026-04-21 00:48 31.23294 -104.46152 30239 ft 501 kts 104°
2026-04-21 00:48 31.22566 -104.42175 30629 ft 501 kts 104°
2026-04-21 00:49 31.21837 -104.38195 31006 ft 502 kts 104°
2026-04-21 00:49 31.21104 -104.34206 31332 ft 502 kts 104°
2026-04-21 00:49 31.20371 -104.30223 31598 ft 502 kts 104°
2026-04-21 00:49 31.19634 -104.26229 31827 ft 503 kts 104°
2026-04-21 00:50 31.18896 -104.22231 32077 ft 504 kts 104°
2026-04-21 00:50 31.18155 -104.18229 32370 ft 504 kts 104°
2026-04-21 00:50 31.17424 -104.14283 32655 ft 504 kts 105°
2026-04-21 00:50 31.16682 -104.10289 32927 ft 504 kts 105°
2026-04-21 00:51 31.16031 -104.06791 33089 ft 506 kts 105°
2026-04-21 00:51 31.15277 -104.02750 33073 ft 512 kts 105°
2026-04-21 00:51 31.13742 -103.94544 33085 ft 522 kts 105°
2026-04-21 00:52 31.12181 -103.86220 33075 ft 528 kts 105°
2026-04-21 00:52 31.10611 -103.77878 33065 ft 530 kts 105°
2026-04-21 00:53 31.09027 -103.69487 33059 ft 529 kts 105°
2026-04-21 00:53 31.07440 -103.61117 33054 ft 528 kts 105°
2026-04-21 00:54 31.05848 -103.52756 33052 ft 527 kts 105°
2026-04-21 00:54 31.04253 -103.44412 33043 ft 527 kts 105°
2026-04-21 00:55 31.02664 -103.36128 33040 ft 527 kts 105°
2026-04-21 00:55 31.01058 -103.27784 33054 ft 527 kts 105°
2026-04-21 00:56 30.99447 -103.19445 33093 ft 527 kts 105°
2026-04-21 00:56 30.97831 -103.11112 33125 ft 527 kts 105°
2026-04-21 00:57 30.96223 -103.02842 33153 ft 526 kts 105°
2026-04-21 00:57 30.94987 -102.94441 33152 ft 528 kts 94°
2026-04-21 00:58 30.94806 -102.85886 33168 ft 529 kts 92°
2026-04-21 00:58 30.94714 -102.77316 33150 ft 529 kts 92°
2026-04-21 00:59 30.94567 -102.68799 33131 ft 529 kts 93°
2026-04-21 00:59 30.94371 -102.60232 33115 ft 529 kts 93°
2026-04-21 01:00 30.94156 -102.51682 33111 ft 528 kts 93°
2026-04-21 01:00 30.93941 -102.43206 33112 ft 528 kts 93°
2026-04-21 01:01 30.93723 -102.34661 33117 ft 527 kts 93°
2026-04-21 01:01 30.93501 -102.26185 33128 ft 527 kts 93°
2026-04-21 01:02 30.93272 -102.17645 33130 ft 528 kts 94°
2026-04-21 01:02 30.93037 -102.09098 33139 ft 528 kts 94°
2026-04-21 01:03 30.92796 -102.00550 33143 ft 528 kts 94°
2026-04-21 01:03 30.92551 -101.92057 33148 ft 528 kts 94°
2026-04-21 01:04 30.92299 -101.83512 33162 ft 528 kts 94°
2026-04-21 01:04 30.92042 -101.74964 33151 ft 529 kts 94°
2026-04-21 01:05 30.91778 -101.66407 33173 ft 529 kts 94°
2026-04-21 01:05 30.91509 -101.57848 33172 ft 529 kts 94°
2026-04-21 01:06 30.91236 -101.49351 33195 ft 529 kts 94°
2026-04-21 01:06 30.90955 -101.40790 33205 ft 529 kts 94°
2026-04-21 01:07 30.90669 -101.32227 33219 ft 529 kts 94°
2026-04-21 01:07 30.90378 -101.23661 33225 ft 529 kts 94°
2026-04-21 01:08 30.90091 -101.15166 33226 ft 529 kts 94°
2026-04-21 01:08 30.89788 -101.06610 33231 ft 529 kts 94°
2026-04-21 01:09 30.89480 -100.98065 33225 ft 528 kts 94°
2026-04-21 01:09 30.89165 -100.89520 33216 ft 528 kts 94°
2026-04-21 01:10 30.88840 -100.80982 33217 ft 528 kts 94°
2026-04-21 01:10 30.88515 -100.72511 33210 ft 527 kts 94°
2026-04-21 01:11 30.88184 -100.63981 33218 ft 527 kts 94°
2026-04-21 01:11 30.87850 -100.55457 33221 ft 527 kts 94°
2026-04-21 01:12 30.87613 -100.49528 33218 ft 527 kts 94°
2026-04-21 01:12 30.87272 -100.41076 33223 ft 526 kts 94°
2026-04-21 01:13 30.86922 -100.32567 33220 ft 526 kts 94°
2026-04-21 01:13 30.86566 -100.24057 33219 ft 526 kts 94°
2026-04-21 01:14 30.86205 -100.15554 33225 ft 526 kts 95°
2026-04-21 01:14 30.85842 -100.07110 33224 ft 526 kts 95°
2026-04-21 01:15 30.85470 -99.98617 33225 ft 525 kts 95°
2026-04-21 01:15 30.85119 -99.90691 33226 ft 525 kts 95°
2026-04-21 01:16 30.84736 -99.82202 33229 ft 525 kts 95°
2026-04-21 01:16 30.84352 -99.73780 33233 ft 525 kts 95°
2026-04-21 01:17 30.83960 -99.65314 33237 ft 524 kts 95°
2026-04-21 01:17 30.83562 -99.56850 33239 ft 524 kts 95°
2026-04-21 01:18 30.83159 -99.48381 33242 ft 524 kts 95°
2026-04-21 01:18 30.82771 -99.40289 33247 ft 524 kts 95°
2026-04-21 01:19 30.82364 -99.31885 33248 ft 523 kts 95°
2026-04-21 01:19 30.81969 -99.23826 33250 ft 523 kts 95°
2026-04-21 01:20 30.81548 -99.15373 33257 ft 523 kts 95°
2026-04-21 01:20 30.81118 -99.06929 33246 ft 522 kts 95°
2026-04-21 01:21 30.80903 -99.02758 32986 ft 510 kts 95°
2026-04-21 01:21 30.80692 -98.98696 32669 ft 498 kts 95°
2026-04-21 01:21 30.80487 -98.94763 32157 ft 491 kts 95°
2026-04-21 01:21 30.80278 -98.90816 31537 ft 487 kts 95°
2026-04-21 01:22 30.80070 -98.86901 30936 ft 484 kts 95°
2026-04-21 01:22 30.79865 -98.83017 30393 ft 479 kts 95°
2026-04-21 01:22 30.79659 -98.79169 29798 ft 474 kts 95°
2026-04-21 01:22 30.79380 -98.75380 29207 ft 467 kts 98°
2026-04-21 01:23 30.79001 -98.71653 28591 ft 462 kts 99°
2026-04-21 01:23 30.78586 -98.67969 27966 ft 457 kts 99°
2026-04-21 01:23 30.78172 -98.64321 27360 ft 453 kts 99°
2026-04-21 01:23 30.77778 -98.60755 26782 ft 449 kts 99°
2026-04-21 01:24 30.77395 -98.57176 26221 ft 444 kts 98°
2026-04-21 01:24 30.77019 -98.53628 25665 ft 440 kts 99°
2026-04-21 01:24 30.76648 -98.50115 25114 ft 436 kts 99°
2026-04-21 01:24 30.76280 -98.46629 24572 ft 432 kts 99°
2026-04-21 01:25 30.75848 -98.43190 24019 ft 427 kts 106°
2026-04-21 01:25 30.74830 -98.39997 23419 ft 419 kts 117°
2026-04-21 01:25 30.73612 -98.36991 22860 ft 414 kts 118°
2026-04-21 01:25 30.72367 -98.33990 22238 ft 411 kts 118°
2026-04-21 01:26 30.71140 -98.31003 21609 ft 409 kts 118°
2026-04-21 01:26 30.69933 -98.28012 21004 ft 407 kts 118°
2026-04-21 01:26 30.68748 -98.25034 20443 ft 404 kts 117°
2026-04-21 01:26 30.67579 -98.22079 19887 ft 401 kts 117°
2026-04-21 01:27 30.66423 -98.19136 19325 ft 399 kts 117°
2026-04-21 01:27 30.65273 -98.16216 18767 ft 397 kts 117°
2026-04-21 01:27 30.64135 -98.13345 18194 ft 395 kts 117°
2026-04-21 01:27 30.62989 -98.10465 17654 ft 391 kts 117°
2026-04-21 01:28 30.61857 -98.07622 17162 ft 386 kts 117°
2026-04-21 01:28 30.60737 -98.04810 16651 ft 382 kts 117°
2026-04-21 01:28 30.59633 -98.02029 16142 ft 378 kts 117°
2026-04-21 01:28 30.58535 -97.99277 15629 ft 374 kts 117°
2026-04-21 01:29 30.57447 -97.96549 15130 ft 370 kts 117°
2026-04-21 01:29 30.56118 -97.94035 14605 ft 364 kts 134°
2026-04-21 01:29 30.54261 -97.92186 14290 ft 349 kts 153°
2026-04-21 01:29 30.52165 -97.90944 14239 ft 330 kts 158°
2026-04-21 01:30 30.50147 -97.89842 14038 ft 313 kts 158°
2026-04-21 01:30 30.48202 -97.88777 13454 ft 308 kts 158°
2026-04-21 01:30 30.46268 -97.87706 12802 ft 307 kts 158°
2026-04-21 01:31 30.44606 -97.86777 12289 ft 304 kts 158°
2026-04-21 01:31 30.42727 -97.85717 11741 ft 299 kts 158°
2026-04-21 01:31 30.40866 -97.84664 11190 ft 295 kts 157°
2026-04-21 01:31 30.39033 -97.83628 10631 ft 291 kts 158°
2026-04-21 01:32 30.37221 -97.82604 10082 ft 288 kts 158°
2026-04-21 01:32 30.35458 -97.81609 9540 ft 283 kts 157°
2026-04-21 01:32 30.33761 -97.80648 9418 ft 260 kts 157°
2026-04-21 01:32 30.32202 -97.79765 9108 ft 243 kts 157°
2026-04-21 01:33 30.30699 -97.78918 8485 ft 239 kts 157°
2026-04-21 01:33 30.29214 -97.78083 7894 ft 235 kts 156°
2026-04-21 01:33 30.27740 -97.77313 7277 ft 231 kts 165°
2026-04-21 01:33 30.26180 -97.77091 6819 ft 222 kts 178°
2026-04-21 01:34 30.24660 -97.77059 6337 ft 221 kts 179°
2026-04-21 01:34 30.23114 -97.77064 5827 ft 223 kts 179°
2026-04-21 01:34 30.21559 -97.77099 5349 ft 224 kts 179°
2026-04-21 01:34 30.19993 -97.77162 4853 ft 226 kts 179°
2026-04-21 01:35 30.18441 -97.77242 4339 ft 220 kts 179°
2026-04-21 01:35 30.16933 -97.77335 3847 ft 215 kts 179°
2026-04-21 01:35 30.15454 -97.77437 3349 ft 211 kts 179°
2026-04-21 01:35 30.14001 -97.77559 2824 ft 208 kts 179°
2026-04-21 01:36 30.12593 -97.77695 2590 ft 206 kts 179°
2026-04-21 01:36 30.11174 -97.77830 2545 ft 209 kts 179°
2026-04-21 01:36 30.09712 -97.77968 2517 ft 206 kts 179°
2026-04-21 01:36 30.08288 -97.78099 2513 ft 205 kts 179°
2026-04-21 01:37 30.06862 -97.78235 2512 ft 207 kts 179°
2026-04-21 01:37 30.05434 -97.78229 2506 ft 203 kts 159°
2026-04-21 01:37 30.04379 -97.77263 2513 ft 198 kts 117°
2026-04-21 01:37 30.04211 -97.75707 2525 ft 195 kts 84°
2026-04-21 01:38 30.04444 -97.74239 2489 ft 178 kts 84°
2026-04-21 01:38 30.04674 -97.72883 2489 ft 170 kts 83°
2026-04-21 01:38 30.05130 -97.71630 2482 ft 180 kts 52°
2026-04-21 01:38 30.06237 -97.70863 2526 ft 191 kts 33°
2026-04-21 01:39 30.07250 -97.69935 2518 ft 181 kts 55°
2026-04-21 01:39 30.08103 -97.68867 2500 ft 181 kts 51°
2026-04-21 01:39 30.09193 -97.68090 2515 ft 188 kts 30°
2026-04-21 01:39 30.10505 -97.67758 2515 ft 196 kts 12°
2026-04-21 01:40 30.11875 -97.67682 2511 ft 195 kts
2026-04-21 01:40 30.13167 -97.67719 2479 ft 177 kts
2026-04-21 01:40 30.14278 -97.67768 2031 ft 188 kts
2026-04-21 01:40 30.15586 -97.67814 1421 ft 181 kts
2026-04-21 01:41 30.16793 -97.67809 849 ft 172 kts
2026-04-21 01:41 30.17924 -97.67856 563 ft 151 kts 360°
2026-04-21 01:41 30.18864 -97.67886 528 ft 117 kts 358°
2026-04-21 01:41 30.19452 -97.67887 527 ft 61 kts 358°
2026-04-21 01:42 30.19740 -97.67876 526 ft 29 kts
2026-04-21 01:42 30.19887 -97.67779 525 ft 18 kts 69°
2026-04-21 01:42 30.19888 -97.67635 526 ft 18 kts 90°
2026-04-21 01:42 30.19892 -97.67483 526 ft 19 kts 86°
2026-04-21 01:43 30.19900 -97.67347 526 ft 8 kts 75°
2026-04-21 01:43 30.19895 -97.67201 526 ft 26 kts 89°
2026-04-21 01:43 30.19902 -97.66996 526 ft 25 kts 86°
2026-04-21 01:43 30.19905 -97.66806 526 ft 23 kts 90°
2026-04-21 01:44 30.19971 -97.66688 526 ft 16 kts
2026-04-21 01:44 30.20057 -97.66742 526 ft 15 kts 287°
2026-04-21 01:44 30.20090 -97.66856 526 ft 15 kts 315°
2026-04-21 01:44 30.20141 -97.66861 526 ft 7 kts 11°
2026-04-21 01:45 30.20161 -97.66856 526 ft 0 kts 13°